Location: Stara Lesna
(49.1528°N, 20.2911°E)
Time: 03:44:48
(UTC+02:00)

Cosmos 1707 Rocket - Pass Details

Date: 13 July 2020
Orbit: 604 x 632 km, 82.5° (Epoch: 11 August)

Event Time Altitude Azimuth Distance (km) Brightness Sun altitude
Rises 01:07:28 0° 346° (NNW) 2,932 8.4 -18.9°
Reaches altitude 10° 01:09:45 10° 343° (NNW) 2,016 7.2 -18.8°
Maximum altitude 01:14:07 57° 265° (W) 743 3.8 -18.8°
Enters shadow 01:15:25 40° 210° (SSW) 928 4.0 -18.7°
